[[{"header":{"parameterUnit":"m.s-1","parameterCategory":1,"la1":30.2991,"la2":30.254,"lo1":-89.0895,"lo2":-89.0444,"dy":0.0017,"dx":0.0017,"nx":28,"ny":28,"refTime":"2024-04-12T09:00:00:Z","depth":0,"parameterNumber":2,"parameterNumberName":"U-component_of_WINDS"},"data":[0,0,0,0,0,0,0,0,0,0,0,0,0,0,0,0,0,0,0,0,0,0,0,0,0,0,0,0,0,0,0,0,0,0,0,0,0,0,0,0,0,0,0,0,0,0,0,0,0,0,0,0,0,0,0,0,0,0,2.1266,2.1266,0,2.1285,2.1285,2.1285,2.1251,2.1249,2.1248,2.1247,2.1265,2.1267,2.1268,0,0,0,0,0,0,0,0,0,0,0,0,0,2.12,2.1202,2.1266,2.1266,2.1267,2.1285,2.1285,2.1285,2.1251,2.1249,2.1248,2.1247,2.1265,2.1266,2.1268,0,0,0,0,0,0,0,0,0,0,0,0,0,2.1225,2.1202,2.1266,2.1252,2.1251,2.1284,2.1285,2.1285,2.1251,2.1249,2.1248,2.1246,2.1264,2.1266,2.1269,2.1317,0,0,2.1276,2.1277,0,0,0,0,0,0,0,0,2.1224,2.1227,2.1254,2.1253,2.1252,2.1264,2.1268,2.1296,2.1252,2.1251,2.1247,2.1245,2.1266,2.1268,2.1275,2.1318,2.1319,2.1276,2.1277,2.1278,2.1279,0,0,0,0,0,0,0,2.1222,2.1226,2.1273,2.1254,2.1253,2.1244,2.1246,2.1273,2.1268,2.1251,2.1248,2.1251,2.1265,2.1273,2.1275,2.1319,2.1276,2.1278,2.1279,2.128,2.1403,2.1404,0,0,0,0,0,0,2.1222,2.1225,2.1273,2.1274,2.1233,2.1247,2.1248,2.1261,2.1267,2.1267,2.1252,2.1249,2.127,2.1273,2.1276,2.1333,2.1278,2.128,2.1282,2.1401,2.1403,2.1405,0,0,0,0,0,0,2.1221,2.1227,2.1272,2.1249,2.1254,2.125,2.1264,2.1263,2.1271,2.1269,2.1267,2.1262,2.1269,2.1273,2.1307,2.1333,2.1281,2.1283,2.1399,2.1401,2.1404,2.1448,0,0,0,0,0,0,2.1219,2.1226,2.1245,2.125,2.1255,2.1303,2.1266,2.1264,2.1275,2.1271,2.1277,2.1276,2.1268,2.1304,2.1309,2.1335,2.1285,2.1396,2.14,2.1403,2.1444,2.1451,2.1458,0,0,0,0,0,2.1217,2.1256,2.1246,2.1252,2.1278,2.1305,2.1308,2.1298,2.1277,2.1295,2.1294,2.1276,2.133,2.1308,2.1314,2.1341,2.1394,2.1399,2.1403,2.1441,2.145,2.1458,0,0,0,0,0,0,2.1254,2.1256,2.1245,2.1287,2.1296,2.1299,2.1322,2.1308,2.1323,2.1318,2.1304,2.1306,2.1343,2.1346,2.1321,2.1388,2.1358,2.1364,2.1385,2.1394,2.1401,2.1399,2.1287,0,0,0,0,0,2.1267,2.1289,2.129,2.1326,2.1332,2.1326,2.1337,2.1329,2.1337,2.1341,2.1342,2.1351,2.1369,2.1382,2.1399,2.1444,2.1445,2.1466,2.1473,2.1479,2.1484,2.1508,2.1517,2.1419,2.1419,2.1419,0,0,2.1294,2.1298,2.1313,2.1334,2.134,2.1362,2.1329,2.1354,2.1371,2.1344,2.1377,2.1379,2.1387,2.1428,2.1445,2.143,2.1511,2.1484,2.1489,2.149,2.1513,2.1522,2.153,2.1422,2.1421,2.1421,0,0,2.1355,2.136,2.1392,2.1399,2.1408,2.1405,2.1412,2.1418,2.1418,2.145,2.1431,2.145,2.1483,2.149,2.1498,2.1563,2.1547,2.1569,2.1606,2.163,2.1637,2.1644,2.1667,2.1675,2.1574,2.1574,2.1574,0,2.1387,2.142,2.1409,2.1436,2.1446,2.1424,2.1455,2.1463,2.1477,2.1485,2.1468,2.1509,2.1513,2.1555,2.1571,2.1578,2.1586,2.1568,2.1637,2.1644,2.165,2.1672,2.168,2.1577,2.1576,2.1576,2.1576,0,2.1459,2.1483,2.1507,2.1522,2.1535,2.1564,2.1558,2.1572,2.1563,2.1561,2.1595,2.1599,2.1617,2.1627,2.1617,2.1667,2.1658,2.164,2.1609,2.1662,2.1682,2.169,2.158,2.1579,2.1579,2.1578,0,0,2.1543,2.1553,2.1562,2.1568,2.1578,2.1596,2.1624,2.1642,2.1654,2.1666,2.1689,2.1717,2.1701,2.171,2.1702,2.1722,2.1773,2.1702,2.1702,2.1714,2.1828,2.1841,2.1851,2.1763,2.1765,2.1766,2.1827,0,2.1603,2.1651,2.1643,2.169,2.1712,2.1692,2.1716,2.1725,2.1724,2.1742,2.1741,2.1761,2.1738,2.1744,2.1763,2.1763,2.1796,2.1758,2.1784,2.1785,2.1781,2.1861,2.1875,2.1932,2.1835,2.1836,2.1837,0,2.1679,2.1693,2.1743,2.175,2.1758,2.1781,2.1797,2.1814,2.1824,2.1822,2.1833,2.182,2.1848,2.1819,2.1857,2.1832,2.1842,2.1844,2.1846,2.1847,2.1813,2.1864,2.1951,2.1959,2.1849,2.1848,2.1848,0,2.1734,2.1766,2.18,2.1807,2.1815,2.1831,2.1836,2.1844,2.1855,2.1869,2.1876,2.1894,2.1903,2.1916,2.1909,2.1889,2.1949,2.1919,2.1948,2.1948,2.196,2.1959,2.2049,2.1968,2.1968,2.1968,2.1968,0,2.1801,2.1832,2.1825,2.1846,2.188,2.187,2.1904,2.1906,2.1913,2.1934,2.1918,2.1938,2.1927,2.1946,2.1941,2.1974,2.1978,2.1977,2.1975,2.1978,2.1978,2.1983,2.1979,2.197,2.197,2.1969,2.1969,0,2.1868,2.1865,2.19,2.1906,2.1908,2.1933,2.1938,2.1957,2.1956,2.1982,2.1988,2.1985,2.2007,2.2002,2.2025,2.2021,2.2062,2.2055,2.2059,2.2057,2.2086,2.2083,2.2181,2.2194,2.2106,2.2107,2.2108,0,2.1911,2.1934,2.1943,2.1956,2.1962,2.1983,2.1994,2.1986,2.1999,2.2012,2.203,2.205,2.2066,2.2101,2.2101,2.2119,2.2113,2.2146,2.2115,2.2117,2.2112,2.2111,2.2113,2.2152,2.2153,2.2153,2.2154,0,2.1987,2.1984,2.2002,2.202,2.2035,2.2048,2.206,2.2071,2.2064,2.208,2.2102,2.2114,2.2138,2.2158,2.2175,2.2179,2.2166,2.2164,2.2172,2.2174,2.2175,2.2174,2.2075,2.2162,2.2161,2.216,2.216,2.216,2.2042,2.2062,2.2072,2.2092,2.2101,2.2112,2.2131,2.2132,2.2151,2.217,2.2164,2.2189,2.2199,2.222,2.2226,2.2246,2.2233,2.2244,2.2246,2.2249,2.2252,2.2173,2.2249,2.2248,2.2248,2.2248,2.2248,0,2.2117,2.2122,2.2141,2.2159,2.2175,2.2162,2.2175,2.2189,2.2211,2.2222,2.2238,2.2263,2.2283,2.2285,2.2304,2.2319,2.2313,2.2324,2.2322,2.2324,2.2263,2.2254,2.2329,2.2329,2.2329,2.2329,2.2329,2.2329,2.2157,2.2191,2.2189,2.2226,2.2231,2.2256,2.2265,2.2275,2.2283,2.2313,2.2329,2.2331,2.2338,2.2357,2.2375,2.2375,2.2382,2.2395,2.2393,2.2336,2.2328,2.232,2.2312,2.2397,2.2397,2.2452,2.2453,2.2453]},{"header":{"parameterUnit":"m.s-1","parameterCategory":1,"la1":30.2991,"la2":30.254,"lo1":-89.0895,"lo2":-89.0444,"dy":0.0017,"dx":0.0017,"nx":28,"ny":28,"refTime":"2024-04-12T09:00:00:Z","depth":0,"parameterNumber":3,"parameterNumberName":"V-component_of_WINDS"},"data":[0,0,0,0,0,0,0,0,0,0,0,0,0,0,0,0,0,0,0,0,0,0,0,0,0,0,0,0,0,0,0,0,0,0,0,0,0,0,0,0,0,0,0,0,0,0,0,0,0,0,0,0,0,0,0,0,0,0,-3.2095,-3.2097,0,-3.2235,-3.2236,-3.2238,-3.2214,-3.2212,-3.2209,-3.2207,-3.2349,-3.2355,-3.2361,0,0,0,0,0,0,0,0,0,0,0,0,0,-3.1809,-3.1814,-3.2095,-3.2097,-3.2099,-3.2234,-3.2236,-3.2238,-3.2214,-3.2212,-3.2209,-3.2206,-3.2347,-3.2354,-3.2361,0,0,0,0,0,0,0,0,0,0,0,0,0,-3.1939,-3.1816,-3.2095,-3.2103,-3.2105,-3.2234,-3.2236,-3.2239,-3.2215,-3.2211,-3.2208,-3.2204,-3.2344,-3.2353,-3.2362,-3.2491,0,0,-3.239,-3.2394,0,0,0,0,0,0,0,0,-3.1932,-3.1949,-3.21,-3.2103,-3.2105,-3.2203,-3.2187,-3.2323,-3.2216,-3.2173,-3.2207,-3.2203,-3.2303,-3.2315,-3.235,-3.2498,-3.2504,-3.2391,-3.2396,-3.24,-3.2403,0,0,0,0,0,0,0,-3.1923,-3.1943,-3.215,-3.2102,-3.2106,-3.21,-3.2115,-3.2213,-3.2257,-3.2177,-3.2175,-3.2192,-3.2304,-3.2341,-3.2353,-3.2506,-3.239,-3.2398,-3.2404,-3.2408,-3.2768,-3.2772,0,0,0,0,0,0,-3.1911,-3.1936,-3.2146,-3.2154,-3.2008,-3.2108,-3.2124,-3.2175,-3.2256,-3.2265,-3.2195,-3.2191,-3.2327,-3.2342,-3.2358,-3.2515,-3.24,-3.2408,-3.2414,-3.2764,-3.2769,-3.2773,0,0,0,0,0,0,-3.1905,-3.193,-3.214,-3.2045,-3.2071,-3.2117,-3.2175,-3.218,-3.2217,-3.227,-3.2278,-3.2225,-3.2325,-3.2345,-3.2458,-3.2519,-3.2413,-3.2421,-3.2759,-3.2765,-3.2771,-3.2829,0,0,0,0,0,0,-3.1897,-3.1928,-3.1977,-3.2046,-3.2076,-3.2239,-3.2178,-3.2186,-3.2233,-3.2228,-3.23,-3.2308,-3.2324,-3.2445,-3.2467,-3.253,-3.2428,-3.2754,-3.2762,-3.2769,-3.2822,-3.2837,-3.2849,0,0,0,0,0,-3.1887,-3.1988,-3.198,-3.2005,-3.2139,-3.2242,-3.226,-3.2276,-3.2238,-3.2288,-3.2322,-3.2306,-3.2509,-3.2457,-3.2482,-3.2548,-3.275,-3.276,-3.2769,-3.2816,-3.2834,-3.2849,0,0,0,0,0,0,-3.1924,-3.1997,-3.1989,-3.2115,-3.2173,-3.2238,-3.2302,-3.2294,-3.2363,-3.2356,-3.2373,-3.2389,-3.2504,-3.2537,-3.2478,-3.2678,-3.2624,-3.2639,-3.2652,-3.2669,-3.2682,-3.2672,-3.2435,0,0,0,0,0,-3.1947,-3.2025,-3.2084,-3.219,-3.2219,-3.2256,-3.2301,-3.2309,-3.2369,-3.2393,-3.2435,-3.2494,-3.2572,-3.2622,-3.2696,-3.2827,-3.2843,-3.2885,-3.2898,-3.2909,-3.2922,-3.2995,-3.3014,-3.2804,-3.2804,-3.2804,0,0,-3.1995,-3.2045,-3.2092,-3.2199,-3.2244,-3.2325,-3.2276,-3.2363,-3.2423,-3.2406,-3.2516,-3.255,-3.2617,-3.274,-3.2796,-3.2771,-3.2983,-3.2921,-3.2929,-3.2936,-3.3006,-3.3026,-3.3044,-3.281,-3.2809,-3.2808,0,0,-3.2124,-3.2169,-3.2263,-3.231,-3.2379,-3.2403,-3.2426,-3.2493,-3.2515,-3.2626,-3.2615,-3.2686,-3.2819,-3.2867,-3.2909,-3.3058,-3.3046,-3.3082,-3.3153,-3.3224,-3.324,-3.3255,-3.3309,-3.3328,-3.3094,-3.3095,-3.3095,0,-3.2175,-3.2296,-3.2311,-3.24,-3.2448,-3.2437,-3.2532,-3.2577,-3.2667,-3.27,-3.2671,-3.2838,-3.2882,-3.3017,-3.3053,-3.3087,-3.3114,-3.3074,-3.3237,-3.3252,-3.3266,-3.3317,-3.3338,-3.3098,-3.3098,-3.3098,-3.3097,0,-3.2356,-3.244,-3.2507,-3.2595,-3.265,-3.2742,-3.2771,-3.2825,-3.2828,-3.2855,-3.2969,-3.3022,-3.3107,-3.3139,-3.3143,-3.3276,-3.3258,-3.3232,-3.3179,-3.3289,-3.3338,-3.3358,-3.3104,-3.3103,-3.3101,-3.3101,0,0,-3.2511,-3.2608,-3.2633,-3.2673,-3.275,-3.2816,-3.2907,-3.2991,-3.3037,-3.31,-3.3177,-3.329,-3.3268,-3.3315,-3.3324,-3.3386,-3.3503,-3.3354,-3.3355,-3.338,-3.3653,-3.3672,-3.3695,-3.3495,-3.3499,-3.3502,-3.3648,0,-3.2648,-3.281,-3.2827,-3.2971,-3.305,-3.3041,-3.3121,-3.3177,-3.3205,-3.3276,-3.3306,-3.3387,-3.335,-3.3379,-3.3441,-3.3475,-3.3558,-3.3465,-3.3568,-3.3571,-3.3552,-3.372,-3.3741,-3.3876,-3.3667,-3.367,-3.3673,0,-3.2829,-3.2898,-3.3051,-3.3118,-3.3152,-3.3223,-3.3302,-3.337,-3.3433,-3.3449,-3.3504,-3.3505,-3.3599,-3.3543,-3.3674,-3.361,-3.3653,-3.3677,-3.3683,-3.3693,-3.3629,-3.3736,-3.3919,-3.394,-3.3703,-3.37,-3.3698,0,-3.2929,-3.306,-3.3168,-3.3203,-3.3284,-3.3335,-3.3371,-3.3431,-3.3481,-3.3549,-3.3582,-3.3661,-3.3704,-3.3765,-3.3788,-3.3744,-3.3918,-3.3863,-3.3935,-3.3935,-3.3972,-3.397,-3.4165,-3.3999,-3.3999,-3.3998,-3.3998,0,-3.308,-3.3174,-3.3214,-3.3281,-3.3386,-3.3405,-3.3509,-3.3543,-3.3597,-3.367,-3.3667,-3.3736,-3.3762,-3.3835,-3.3853,-3.396,-3.3979,-3.3995,-3.3999,-3.3996,-3.3994,-3.4025,-3.4016,-3.4004,-3.4002,-3.4001,-3.4,0,-3.3209,-3.324,-3.3357,-3.3425,-3.3444,-3.3519,-3.3577,-3.3641,-3.3669,-3.3762,-3.3785,-3.3828,-3.3914,-3.3943,-3.4047,-3.406,-3.4184,-3.4179,-3.4163,-3.4164,-3.4234,-3.4228,-3.4457,-3.4489,-3.4301,-3.4302,-3.4304,0,-3.3303,-3.3376,-3.3451,-3.3501,-3.3539,-3.3618,-3.3669,-3.3691,-3.3744,-3.3823,-3.3879,-3.3964,-3.4034,-3.4173,-3.4213,-3.4294,-3.4291,-3.4366,-3.4303,-3.4298,-3.4294,-3.4289,-3.4297,-3.4378,-3.438,-3.4382,-3.4383,0,-3.3469,-3.3481,-3.3554,-3.3635,-3.3696,-3.3759,-3.3821,-3.3861,-3.3893,-3.3953,-3.4041,-3.4096,-3.4203,-3.4289,-3.4371,-3.4408,-3.4401,-3.4403,-3.4424,-3.4421,-3.4409,-3.4418,-3.4196,-3.4397,-3.4396,-3.4395,-3.4394,-3.4393,-3.3584,-3.3648,-3.3712,-3.3795,-3.3844,-3.3902,-3.3966,-3.4002,-3.4077,-3.4166,-3.4174,-3.427,-3.4333,-3.4443,-3.4484,-3.456,-3.4539,-3.4569,-3.4577,-3.4584,-3.459,-3.4397,-3.4575,-3.4574,-3.4574,-3.4574,-3.4573,0,-3.375,-3.3791,-3.3867,-3.3954,-3.4019,-3.4007,-3.4075,-3.4131,-3.4215,-3.4275,-3.4344,-3.4447,-3.453,-3.4578,-3.4661,-3.4713,-3.4712,-3.4734,-3.4731,-3.474,-3.4604,-3.4578,-3.4733,-3.4733,-3.4733,-3.4733,-3.4733,-3.4733,-3.3844,-3.3953,-3.3972,-3.4105,-3.4145,-3.424,-3.428,-3.4334,-3.4381,-3.4496,-3.4566,-3.4597,-3.4652,-3.474,-3.4816,-3.4828,-3.4859,-3.4884,-3.4893,-3.4765,-3.4749,-3.4733,-3.4709,-3.489,-3.489,-3.5023,-3.5024,-3.5025]}]]